Regional Weather Roundup
Issued by NWS Charleston, SC

Current Version | Previous Version | Graphics & Text | Print | Product List | Glossary On
Versions: 1 2 3 4 5 6 7 8 9 10 11 12 13 14 15 16 17 18 19 20 21 22 23 24 25 26 27 28 29 30 31 32 33 34 35 36 37 38 39 40 41 42 43 44 45 46 47 48 49 50
000
ASUS42 KCHS 301510
RWRCHS
REGIONAL WEATHER ROUNDUP
NATIONAL WEATHER SERVICE CHARLESTON SC
1100 AM EDT TUE SEP 30 2014

NOTE: "FAIR" INDICATES FEW OR NO CLOUDS BELOW 12,000 FEET WITH NO
SIGNIFICANT WEATHER AND/OR OBSTRUCTIONS TO VISIBILITY.

NOT ALL STATIONS ARE QUALITY CONTROLLED BY THE NATIONAL
WEATHER SERVICE. USE DATA WITH CAUTION...ESPECIALLY
DEWPOINT OBSERVATIONS.

SCZ027-030-031-034>040-042>050-301600-
...SOUTH CAROLINA...

CITY           SKY/WX    TMP DP  RH WIND       PRES   REMARKS
N CHARLESTON   MOSUNNY   75  63  66 NE12      29.91S
WATERFRONT PRK NOT AVBL
FORT JOHNSON   NOT AVBL
MOUNT PLEASANT FAIR      73  64  73 N9        29.90S
JOHNS ISLAND   CLOUDY    72  72 100 N10       29.90F
PINOPOLIS        N/A     70  63  78 N7        29.84F
MONCKS CORNER  NOT AVBL
SUMMERVILLE    FAIR      72  63  73 N6        29.93S
BEAUFORT MCAS  PTSUNNY   72  63  73 N10       29.91S
BEAUFORT ARPT  CLOUDY    72  64  78 N12       29.91S
HILTON HEAD IS PTSUNNY   72  64  78 N9G18     29.92
GEORGETOWN     NOT AVBL
WALTERBORO     SUNNY     73  57  56 N8        29.93S
ORANGEBURG     SUNNY     74  57  55 VRB6      29.94S
BARNWELL       FAIR      73  61  64 N8        29.95S
AIKEN          FAIR      73  63  68 N7        29.98F
MANNING        FAIR      73  64  73 N7        29.93F
KINGSTREE      NOT AVBL
COLUMBIA       SUNNY     75  58  55 VRB5      29.94S
SUMTER         SUNNY     73  59  61 VRB6      29.92F
FLORENCE       SUNNY     73  64  73 NE8       29.93S
MYRTLE BEACH   SUNNY     73  61  64 N13       29.91R
N MYRTLE BEACH SUNNY     75  62  64 N8        29.90S

$$

GAZ063-065-086>088-099>101-113>116-118-119-134-136>141-150-301600-
...GEORGIA...

CITY           SKY/WX    TMP DP  RH WIND       PRES   REMARKS
SAVANNAH ARPT  CLOUDY    71  64  78 N8        29.92S
HUNTER AAF     NOT AVBL
FORT STEWART   CLOUDY    68  65  90 N8        29.91R
STATESBORO     NOT AVBL
SYLVANIA       SUNNY     75  68  80 NE6       29.94S
CLAXTON          N/A     70  68  94 NE5       29.93S
THOMSON        SUNNY     74  68  82 N5        30.00F
AUGUSTA-BUSH   SUNNY     74  60  61 N6        29.94F
AUGUSTA-DANIEL SUNNY     73  60  63 VRB5      29.96F
SWAINSBORO     CLOUDY    73  68  83 CALM      29.95S
VIDALIA        CLOUDY    72  66  83 E9        29.94S
ALMA           CLOUDY    71  67  87 VRB3      29.92S
WAYCROSS       CLOUDY    73  71  94 NE8       29.92S
JESUP          CLOUDY    73  70  88 NE3       29.92S
BRUNSWICK      CLOUDY    72  68  88 NW5       29.90S
SAINT SIMONS   CLOUDY    71  68  90 N9        29.89S

$$

SCZ027-028-034-036>038-045-046-048>050-GAZ119-141-301600-
...LAKE AND SUPPLEMENTAL COASTAL OBSERVATIONS...

STATION/POSITION TIME  TEMP    WIND        PRES    WAVE   SWELL
                       AIR SEA DIR/SP/G            HT/PER HT/PER/DIR
                 (UTC) (F)     (DEG/KT/KT) (MB)    (FT/S) (FT/S/D)
UPR LAKE MARION  NOT AVBL
WINYAH BAY       1400   69      10/  6     1012.0S
LAKE MURRAY      1400   70     330/  2/  6 1013.9S
ACE BASIN NERRS  1400   68      10/  3     1013.0S
FORT PULASKI     1500   71     360/ 10/ 13 1012.7S
SAPELO ISLAND    NOT AVBL

$$

ANZ835-935-AMZ111-154-330-350-352-354-374-450-454-472-301600-
...C-MAN AND BUOY OBSERVATIONS...

STATION/POSITION TIME  TEMP    WIND        PRES    WAVE   SWELL
                       AIR SEA DIR/SP/G            HT/PER HT/PER/DIR
                 (UTC) (F)     (DEG/KT/KT) (MB)    (FT/S) (FT/S/D)
FOLLY BEACH CMAN 1400   69     360/  9/ 11 1012.9R
BUOY 41004       1500   75 81   10/ 17/ 21 1010.5R   4/ 6   2/ 8
BUOY 41008       1500   72 79   20/ 16/ 19 1011.5S   4/ 5   2/ 90/ 9
5E ST. MARYS GA  1500      79                N/A     5/ 5
FRYING PAN BUOY  NOT AVBL
BUOY 41025       1400   73     360/ 16/ 19 1011.4F   4/ 6   2/ 70/ 8
CAPE LOOKOUT NC  1400   70     360/ 10/ 12 1012.0R
BUOY 41002       1353   74 80  180/ 14/ 17 1010.6    3/ 8   2/ 70/ 8
BUOY 41010       1500   81 84  290/ 14/ 17 1010.0F   3/ 8   2/ 80/ 8
BUOY 41012       NOT AVBL
ST AUGUSTINE FL  1500   75     330/  7/  8 1011.8R
CAPERS NEARSHORE 1400   69      30/ 16/ 17   N/A
FRIPP NEARSHORE  NOT AVBL


$$


USA.gov is the U.S. government's official web portal to all federal, state and local government web resources and services.